Flight Track Log - Related Links

Times and Time Zones

All times are in EDT time to prevent confusion due to time zone crossing. See the UAL5887 flight status page for this flight to view local times or setup timezone preferences in your user account.

Time Position Orientation Groundspeed Altitude Reporting Facility
EDT Latitude Longitude Course Direction KTS MPH feet Rate Location/Type
Fri 08:19:46 AM 36.1500 -86.6667 22° Northeast 158 182 1,200  Level Nashville TRACON
Fri 08:20:34 AM 36.1833 -86.6667 360° North 160 184 2,800 1,889 Climbing Nashville TRACON
Fri 08:21:34 AM 36.2333 -86.6333 28° Northeast 200 230 4,600 1,850 Climbing Nashville TRACON
Fri 08:22:34 AM 36.3000 -86.6167 11° North 273 314 6,500 2,014 Climbing Nashville TRACON
Fri 08:23:57 AM 36.3861 -86.5675 25° Northeast 284 327 9,400 1,846 Climbing Memphis Center
Fri 08:24:57 AM 36.4622 -86.5303 21° North 289 333 10,900 1,300 Climbing Memphis Center
Fri 08:25:00 AM 36.5428 -86.4786 22° Northeast  Level FlightAware Approximate
Fri 08:25:57 AM 36.5444 -86.4903 21° North 302 348 12,000  Level Memphis Center
Fri 08:26:57 AM 36.6367 -86.4444 22° Northeast 336 387 13,000 1,050 Climbing Memphis Center
Fri 08:27:57 AM 36.7331 -86.3958 22° Northeast 362 417 14,100 1,050 Climbing Memphis Center
Fri 08:28:57 AM 36.8294 -86.3472 22° Northeast 375 432 15,100 1,100 Climbing Memphis Center
Fri 08:29:57 AM 36.9403 -86.2922 22° Northeast 380 437 16,300 1,291 Climbing Memphis Center
Fri 08:31:35 AM 37.0986 -86.2131 22° Northeast 380 437 18,500 1,388 Climbing Indianapolis Center
Fri 08:32:37 AM 37.1964 -86.1656 21° North 376 433 20,000 1,415 Climbing Indianapolis Center
Fri 08:33:38 AM 37.2925 -86.1097 25° Northeast 376 433 21,400 1,171 Climbing Indianapolis Center
Fri 08:34:40 AM 37.3889 -86.0453 28° Northeast 386 444 22,400 976 Climbing Indianapolis Center
Fri 08:35:41 AM 37.4872 -85.9819 27° Northeast 391 450 23,400 1,013 Climbing Indianapolis Center
Fri 08:37:20 AM 37.6619 -85.9572 North 381 438 25,100 1,013 Climbing Indianapolis Center
Fri 08:38:21 AM 37.7667 -85.9475 North 378 435 26,100 1,024 Climbing Indianapolis Center
Fri 08:39:23 AM 37.8714 -85.9372 North 376 433 27,200 1,016 Climbing Indianapolis Center
Fri 08:40:25 AM 37.9758 -85.9272 North 375 432 28,200 976 Climbing Indianapolis Center
Fri 08:41:26 AM 38.0778 -85.9172 North 368 423 29,200 976 Climbing Indianapolis Center
Fri 08:42:28 AM 38.1803 -85.9086 North 368 423 30,200 1,065 Climbing Indianapolis Center
Fri 08:43:30 AM 38.3039 -85.8958 North 369 425 31,400 878 Climbing Indianapolis Center
Fri 08:44:31 AM 38.4083 -85.8858 North 373 429 32,000 293 Climbing Indianapolis Center
Fri 08:45:33 AM 38.5175 -85.8744 North 389 448 32,000  Level Indianapolis Center
Fri 08:46:34 AM 38.6294 -85.8650 North 408 470 32,000  Level Indianapolis Center
Fri 08:47:36 AM 38.7411 -85.8539 North 403 464 32,000 -532 Level Indianapolis Center
Fri 08:48:38 AM 38.8531 -85.8439 North 402 463 30,900 -1,366 Descending Indianapolis Center
Fri 08:49:39 AM 38.9819 -85.8297 North 396 456 29,200 -1,610 Descending Indianapolis Center
Fri 08:50:41 AM 39.0911 -85.8197 North 393 452 27,600 -1,452 Descending Indianapolis Center
Fri 08:51:43 AM 39.1981 -85.8094 North 384 442 26,200 -774 Descending Indianapolis Center
Fri 08:52:45 AM 39.3008 -85.7983 North 370 426 26,000 -98 Descending Indianapolis Center
Fri 08:53:46 AM 39.4031 -85.7903 North 368 423 26,000  Level Indianapolis Center
Fri 08:54:48 AM 39.5067 -85.7781 North 371 427 26,000  Level Indianapolis Center
Fri 08:55:50 AM 39.6136 -85.7675 North 382 440 26,000  Level Indianapolis Center
Fri 08:56:51 AM 39.7436 -85.7550 North 399 459 26,000  Level Indianapolis Center
Fri 08:57:53 AM 39.8578 -85.7444 North 408 470 26,000  Level Indianapolis Center
Fri 08:58:55 AM 39.9717 -85.7322 North 410 472 26,000  Level Indianapolis Center
Fri 08:59:56 AM 40.0858 -85.7203 North 410 472 26,000 -390 Level Indianapolis Center
Fri 09:00:58 AM 40.1942 -85.7383 353° North 387 445 25,200 -750 Descending Indianapolis Center
Fri 09:01:16 AM 40.2219 -85.7642 325° Northwest 379 436 25,000 -375 Descending Chicago Center
Fri 09:02:18 AM 40.2958 -85.8525 318° Northwest 361 415 24,700 -629 Descending Chicago Center
Fri 09:03:20 AM 40.3722 -85.9469 317° Northwest 373 429 23,700 -829 Descending Chicago Center
Fri 09:04:21 AM 40.4600 -86.0567 316° Northwest 373 429 23,000 -341 Descending Chicago Center
Fri 09:05:23 AM 40.5344 -86.1469 317° Northwest 366 421 23,000  Level Chicago Center
Fri 09:06:26 AM 40.6089 -86.2400 317° Northwest 367 422 23,000  Level Chicago Center
Fri 09:07:27 AM 40.6839 -86.3339 317° Northwest 371 427 23,000  Level Chicago Center
Fri 09:08:28 AM 40.7592 -86.4275 317° Northwest 371 427 23,000  Level Chicago Center
Fri 09:09:30 AM 40.8356 -86.5233 317° Northwest 381 438 23,000 -194 Level Chicago Center
Fri 09:10:32 AM 40.9114 -86.6186 316° Northwest 378 435 22,600 -1,113 Descending Chicago Center
Fri 09:11:34 AM 40.9881 -86.7144 317° Northwest 378 435 20,700 -2,049 Descending Chicago Center
Fri 09:12:35 AM 41.0744 -86.8239 316° Northwest 365 420 18,400 -1,854 Descending Chicago Center
Fri 09:13:37 AM 41.1469 -86.9139 317° Northwest 360 414 16,900 -1,839 Descending Chicago Center
Fri 09:14:39 AM 41.2150 -87.0006 316° Northwest 344 396 14,600 -2,323 Descending Chicago Center
Fri 09:15:41 AM 41.2822 -87.0894 315° West 341 392 12,100 -1,742 Descending Chicago Center
Fri 09:16:43 AM 41.3486 -87.1722 317° Northwest 336 387 11,000 -623 Descending Chicago Center
Fri 09:17:27 AM 41.4167 -87.2500 319° Northwest 332 382 11,000  Level Chicago TRACON
Fri 09:18:27 AM 41.4833 -87.3333 317° Northwest 338 389 11,000  Level Chicago TRACON
Fri 09:19:27 AM 41.5500 -87.4167 317° Northwest 337 388 11,000  Level Chicago TRACON
Fri 09:19:48 AM 41.5703 -87.4325 330° Northwest 336 387 11,000  Level Chicago Center
Fri 09:20:50 AM 41.6414 -87.5117 320° Northwest 335 386 11,000  Level Chicago Center
Fri 09:21:52 AM 41.7128 -87.5914 320° Northwest 338 389 11,000  Level Chicago Center
Fri 09:22:27 AM 41.7667 -87.6500 321° Northwest 303 349 11,000 -1,011 Level Chicago TRACON
Fri 09:23:27 AM 41.8167 -87.7167 315° West 261 300 9,400 -1,381 Descending Chicago TRACON
Fri 09:24:33 AM 41.8667 -87.7833 315° West 251 289 8,100 -667 Descending Chicago TRACON
Fri 09:25:33 AM 41.8833 -87.8667 285° West 260 299 8,000 -53 Descending Chicago TRACON
Fri 09:26:27 AM 41.8833 -87.9500 270° West 224 258 8,000 -421 Level Chicago TRACON
Fri 09:27:27 AM 41.8833 -88.0333 270° West 218 251 7,200 -1,134 Descending Chicago TRACON
Fri 09:28:34 AM 41.8833 -88.1167 270° West 216 249 5,600 -1,469 Descending Chicago TRACON
Fri 09:29:05 AM 41.8836 -88.1589 271° West 214 246 4,800 -1,032 Descending Chicago Center
Fri 09:30:07 AM 41.8917 -88.2356 278° West 230 265 4,000 -387 Descending Chicago Center
Fri 09:31:09 AM 41.9503 -88.2372 359° North 222 255 4,000  Level Chicago Center
Fri 09:32:11 AM 41.9678 -88.1633 72° East 215 247 4,000 -484 Level Chicago Center
Fri 09:33:13 AM 41.9683 -88.0872 89° East 209 241 3,000 -1,091 Descending Chicago Center
Fri 09:33:28 AM 41.9667 -88.0500 93° East 203 234 2,600 -1,120 Descending Chicago TRACON
Fri 09:34:28 AM 41.9667 -87.9833 90° East 152 175 1,600 -850 Descending Chicago TRACON
Fri 09:35:28 AM 41.9667 -87.9333 90° East 138 159 900 -700 Descending Chicago TRACON
Fri 09:37:00 AM 41.9667 -87.9000 North  Level FlightAware Approximate

Login

Don't have an account? Register now (free) for customized features, flight alerts, and more!